Location: Richmond
(37.5536°N, 77.4606°W)
Time: 01:33:44
(UTC-05:00)

ISS - Visible Passes

Search period start: 22 February 2018 00:00
Search period end: 04 March 2018 00:00
Orbit: 403 x 407 km, 51.6° (Epoch: 22 February)

Date Brightness Start Highest point End Pass type
(mag) Time Alt. Az. Time Alt. Az. Time Alt. Az.
25 Feb -1.6 05:49:34 10° S 05:52:20 26° SE 05:55:07 10° ENE visible
26 Feb -0.8 04:58:42 10° SSE 05:00:17 13° SE 05:01:52 10° E visible
27 Feb -3.6 05:41:24 14° SW 05:44:09 72° SE 05:47:25 10° NE visible
28 Feb -2.4 04:51:52 33° SE 04:51:57 33° SE 04:54:57 10° ENE visible
01 Mar -3.3 05:34:50 28° W 05:36:04 43° NW 05:39:13 10° NE visible
02 Mar -2.4 04:44:56 36° NE 04:44:56 36° NE 04:47:01 10° NE visible
03 Mar -2.2 05:27:35 21° NW 05:28:05 21° NNW 05:30:41 10° NNE visible
